Location: Dompnac
(44.5644°N, 4.1026°E)
Time: 21:06:19
(UTC+00:00)

CZ-2C R/B - Pass Details

Date: 19 September 2020
Orbit: 391 x 588 km, 35.0° (Epoch: 27 October)

Event Time Altitude Azimuth Distance (km) Brightness Sun altitude
Rises 18:32:18 0° 238° (WSW) 2,495 5.5 -9.0°
Reaches altitude 10° 18:35:05 10° 217° (SW) 1,575 4.0 -9.5°
Maximum altitude 18:37:26 17° 176° (S) 1,198 2.9 -9.9°
Enters shadow 18:39:33 11° 137° (SE) 1,472 3.0 -10.3°
